| time (UTC) | temp F | wind direction | speed MPH | gust MPH | rain 1hr in | rain 24hr in | rain mn in | humidity % | barometer mb |
| 20260508153304 | 52 | 157 | 11.0 | 16.0 | 0.00 | 0.02 | 0.00 | 47 | 1019.1 |
| 20260508152804 | 51 | 147 | 7.0 | 16.0 | 0.00 | 0.02 | 0.00 | 48 | 1010.2 |
| 20260508152306 | 51 | 163 | 5.0 | 14.0 | 0.00 | 0.02 | 0.00 | 47 | 1019.8 |
| 20260508151804 | 50 | 148 | 6.0 | 8.0 | 0.00 | 0.02 | 0.00 | 54 | 1010.2 |
| 20260508151304 | 50 | 140 | 3.0 | 6.0 | 0.00 | 0.02 | 0.00 | 53 | 1016.1 |
| 20260508150304 | 48 | 324 | 1.0 | 2.0 | 0.00 | 0.02 | 0.00 | 56 | 1016.7 |
| 20260508145306 | 45 | 10 | 1.0 | 5.0 | 0.00 | 0.02 | 0.00 | 63 | 1010.4 |
| 20260508144804 | 44 | 59 | 2.0 | 3.0 | 0.00 | 0.02 | 0.00 | 65 | 1010.6 |
| 20260508144304 | 44 | 51 | 2.0 | 7.0 | 0.00 | 0.02 | 0.00 | 66 | 1010.4 |
| 20260508143804 | 43 | 28 | 3.0 | 6.0 | 0.00 | 0.02 | 0.00 | 67 | 1010.4 |
| 20260508143304 | 42 | 32 | 3.0 | 6.0 | 0.00 | 0.02 | 0.00 | 68 | 1010.7 |
| 20260508142306 | 42 | 34 | 4.0 | 7.0 | 0.00 | 0.02 | 0.00 | 69 | 1010.7 |
| 20260508141805 | 41 | 47 | 5.0 | 7.0 | 0.00 | 0.02 | 0.00 | 71 | 1014.7 |
| 20260508141304 | 41 | 355 | 2.0 | 6.0 | 0.00 | 0.02 | 0.00 | 72 | 1010.8 |
| 20260508140804 | 40 | 37 | 3.0 | 6.0 | 0.00 | 0.02 | 0.00 | 74 | 1010.8 |
| 20260508140304 | 40 | 36 | 2.0 | 5.0 | 0.00 | 0.02 | 0.00 | 75 | 1010.9 |
| 20260508135804 | 38 | 49 | 4.0 | 7.0 | 0.00 | 0.02 | 0.00 | 77 | 1010.8 |
| 20260508135306 | 38 | 56 | 4.0 | 7.0 | 0.00 | 0.02 | 0.00 | 78 | 1010.8 |
| 20260508134804 | 38 | 44 | 3.0 | 6.0 | 0.00 | 0.02 | 0.00 | 78 | 1010.9 |
| 20260508134304 | 38 | 46 | 5.0 | 6.0 | 0.00 | 0.02 | 0.00 | 78 | 1010.9 |
| 20260508133804 | 37 | 48 | 5.0 | 7.0 | 0.00 | 0.02 | 0.00 | 79 | 1010.8 |
| 20260508132804 | 37 | 36 | 3.0 | 6.0 | 0.00 | 0.02 | 0.00 | 80 | 1010.8 |
| 20260508132306 | 36 | 56 | 5.0 | 6.0 | 0.00 | 0.02 | 0.00 | 82 | 1010.8 |
| 20260508131804 | 36 | 42 | 5.0 | 5.0 | 0.00 | 0.02 | 0.00 | 82 | 1010.7 |
| 20260508130304 | 36 | 33 | 4.0 | 6.0 | 0.00 | 0.02 | 0.00 | 82 | 1016.7 |
| 20260508125804 | 35 | 54 | 5.0 | 6.0 | 0.00 | 0.02 | 0.00 | 84 | 1010.8 |
| 20260508125306 | 35 | 51 | 3.0 | 5.0 | 0.00 | 0.02 | 0.00 | 83 | 1010.7 |
| 20260508124804 | 35 | 39 | 3.0 | 5.0 | 0.00 | 0.02 | 0.00 | 84 | 1010.6 |
| 20260508124304 | 35 | 41 | 3.0 | 6.0 | 0.00 | 0.02 | 0.00 | 84 | 1010.7 |
| 20260508123803 | 34 | 28 | 2.0 | 5.0 | 0.00 | 0.02 | 0.00 | 86 | 1015.0 |
| 20260508123304 | 35 | 40 | 3.0 | 5.0 | 0.00 | 0.02 | 0.00 | 85 | 1010.6 |
| 20260508122804 | 34 | 2 | 2.0 | 5.0 | 0.00 | 0.02 | 0.00 | 85 | 1014.6 |
| 20260508122307 | 35 | 359 | 2.0 | 5.0 | 0.00 | 0.02 | 0.00 | 83 | 1010.5 |
| 20260508121803 | 35 | 61 | 3.0 | 6.0 | 0.00 | 0.02 | 0.00 | 85 | 1010.4 |
| 20260508121303 | 35 | 54 | 4.0 | 5.0 | 0.00 | 0.02 | 0.00 | 84 | 1010.2 |
| 20260508120804 | 35 | 48 | 2.0 | 5.0 | 0.00 | 0.02 | 0.00 | 85 | 1010.2 |
| 20260508115804 | 34 | 58 | 3.0 | 6.0 | 0.00 | 0.02 | 0.00 | 85 | 1010.3 |
| 20260508115306 | 35 | 39 | 3.0 | 5.0 | 0.00 | 0.02 | 0.00 | 84 | 1010.3 |
| 20260508114805 | 35 | 28 | 3.0 | 5.0 | 0.00 | 0.02 | 0.00 | 85 | 1010.1 |
| 20260508114304 | 34 | 48 | 2.0 | 3.0 | 0.00 | 0.02 | 0.00 | 85 | 1019.2 |
| 20260508113804 | 34 | 49 | 2.0 | 3.0 | 0.00 | 0.02 | 0.00 | 85 | 1010.1 |
| 20260508113304 | 35 | 72 | 2.0 | 2.0 | 0.00 | 0.02 | 0.00 | 84 | 1015.9 |
| 20260508112804 | 35 | 18 | 1.0 | 3.0 | 0.00 | 0.02 | 0.00 | 85 | 1010.0 |
| 20260508112306 | 35 | 76 | 3.0 | 3.0 | 0.00 | 0.02 | 0.00 | 85 | 1010.3 |
| 20260508111304 | 34 | 18 | 3.0 | 5.0 | 0.00 | 0.02 | 0.00 | 84 | 1010.0 |
| 20260508110804 | 35 | 26 | 3.0 | 3.0 | 0.00 | 0.02 | 0.00 | 84 | 1010.2 |
| 20260508110303 | 34 | 76 | 2.0 | 2.0 | 0.00 | 0.02 | 0.00 | 85 | 1010.1 |
| 20260508105804 | 34 | 57 | 1.0 | 3.0 | 0.00 | 0.02 | 0.00 | 85 | 1010.1 |
| 20260508105306 | 34 | 34 | 1.0 | 3.0 | 0.00 | 0.02 | 0.00 | 85 | 1010.1 |
| 20260508104804 | 34 | 47 | 2.0 | 3.0 | 0.00 | 0.02 | 0.00 | 84 | 1018.8 |
| 20260508104304 | 35 | 35 | 2.0 | 3.0 | 0.00 | 0.02 | 0.00 | 84 | 1009.8 |
| 20260508103804 | 35 | 48 | 3.0 | 3.0 | 0.00 | 0.02 | 0.00 | 85 | 1019.0 |
| 20260508103303 | 35 | 15 | 1.0 | 2.0 | 0.00 | 0.02 | 0.00 | 83 | 1010.0 |
| 20260508102804 | 35 | 293 | 0.0 | 2.0 | 0.00 | 0.02 | 0.00 | 83 | 1018.8 |
| 20260508102306 | 35 | 17 | 1.0 | 2.0 | 0.00 | 0.02 | 0.00 | 83 | 1010.0 |
| 20260508101803 | 36 | 348 | 1.0 | 2.0 | 0.00 | 0.02 | 0.00 | 83 | 1009.8 |
| 20260508100803 | 37 | 351 | 1.0 | 2.0 | 0.00 | 0.02 | 0.00 | 82 | 1009.8 |
| 20260508100304 | 37 | 235 | 0.0 | 2.0 | 0.00 | 0.02 | 0.00 | 82 | 1009.8 |
| 20260508095803 | 38 | 158 | 0.0 | 3.0 | 0.00 | 0.02 | 0.00 | 80 | 1009.9 |
| 20260508095306 | 37 | 63 | 2.0 | 5.0 | 0.00 | 0.02 | 0.00 | 80 | 1009.8 |
| 20260508094803 | 37 | 61 | 4.0 | 5.0 | 0.00 | 0.02 | 0.00 | 81 | 1009.7 |
| 20260508094305 | 37 | 34 | 3.0 | 6.0 | 0.00 | 0.02 | 0.00 | 80 | 1009.7 |
| 20260508093806 | 37 | 12 | 3.0 | 3.0 | 0.00 | 0.02 | 0.00 | 81 | 1019.0 |
| 20260508093306 | 37 | 48 | 1.0 | 3.0 | 0.00 | 0.02 | 0.00 | 82 | 1009.7 |
| 20260508092806 | 37 | 59 | 2.0 | 3.0 | 0.00 | 0.02 | 0.00 | 81 | 1009.8 |
| 20260508092313 | 38 | 32 | 2.0 | 3.0 | 0.00 | 0.02 | 0.00 | 79 | 1009.9 |
| 20260508091806 | 39 | 7 | 1.0 | 1.0 | 0.00 | 0.02 | 0.00 | 79 | 1009.7 |
| 20260508091305 | 40 | 337 | 1.0 | 2.0 | 0.00 | 0.02 | 0.00 | 78 | 1009.9 |
| 20260508090805 | 40 | 52 | 0.0 | 3.0 | 0.00 | 0.02 | 0.00 | 77 | 1009.8 |
| 20260508090305 | 40 | 74 | 3.0 | 3.0 | 0.00 | 0.02 | 0.00 | 75 | 1017.4 |
| 20260508085805 | 41 | 45 | 2.0 | 3.0 | 0.00 | 0.02 | 0.00 | 77 | 1009.7 |
| 20260508084306 | 40 | 52 | 2.0 | 5.0 | 0.00 | 0.02 | 0.00 | 76 | 1009.8 |
| 20260508082806 | 41 | 62 | 2.0 | 3.0 | 0.00 | 0.02 | 0.00 | 77 | 1009.7 |
| 20260508082306 | 41 | 46 | 2.0 | 3.0 | 0.00 | 0.02 | 0.00 | 75 | 1009.9 |
| 20260508081805 | 40 | 67 | 3.0 | 6.0 | 0.00 | 0.02 | 0.00 | 74 | 1009.9 |
| 20260508081305 | 42 | 30 | 3.0 | 7.0 | 0.00 | 0.02 | 0.00 | 74 | 1009.9 |
| 20260508080306 | 39 | 57 | 5.0 | 10.0 | 0.00 | 0.02 | 0.00 | 77 | 1015.8 |
| 20260508075806 | 40 | 53 | 7.0 | 10.0 | 0.00 | 0.02 | 0.00 | 76 | 1009.9 |
| 20260508074306 | 41 | 55 | 3.0 | 3.0 | 0.00 | 0.02 | 0.00 | 79 | 1010.0 |
| 20260508073805 | 40 | 66 | 2.0 | 5.0 | 0.00 | 0.02 | 0.00 | 78 | 1010.2 |
| 20260508073305 | 40 | 64 | 3.0 | 5.0 | 0.00 | 0.02 | 0.00 | 80 | 1010.1 |
| 20260508072806 | 42 | 37 | 3.0 | 5.0 | 0.00 | 0.02 | 0.00 | 78 | 1010.2 |
| 20260508072307 | 42 | 68 | 3.0 | 5.0 | 0.00 | 0.02 | 0.00 | 63 | 1010.2 |
| 20260508071805 | 41 | 48 | 1.0 | 5.0 | 0.00 | 0.02 | 0.00 | 79 | 1010.1 |
| 20260508071305 | 41 | 71 | 2.0 | 5.0 | 0.00 | 0.02 | 0.00 | 80 | 1010.3 |
| 20260508070805 | 41 | 43 | 2.0 | 3.0 | 0.00 | 0.02 | 0.00 | 81 | 1010.1 |
| 20260508065805 | 43 | 114 | 2.0 | 3.0 | 0.00 | 0.02 | 0.00 | 80 | 1018.2 |
| 20260508064305 | 45 | 25 | 3.0 | 5.0 | 0.00 | 0.02 | 0.00 | 60 | 1010.1 |
| 20260508063806 | 44 | 32 | 1.0 | 2.0 | 0.00 | 0.02 | 0.00 | 80 | 1019.3 |
| 20260508063305 | 41 | 187 | 1.0 | 2.0 | 0.00 | 0.02 | 0.00 | 79 | 1010.1 |
| 20260508062805 | 41 | 289 | 1.0 | 3.0 | 0.00 | 0.02 | 0.00 | 81 | 1013.7 |
| 20260508062306 | 42 | 252 | 0.0 | 3.0 | 0.00 | 0.02 | 0.00 | 81 | 1010.3 |
| 20260508061805 | 42 | 48 | 2.0 | 3.0 | 0.00 | 0.02 | 0.00 | 81 | 1010.0 |
| 20260508061306 | 42 | 43 | 0.0 | 2.0 | 0.00 | 0.02 | 0.00 | 81 | 1010.0 |
| 20260508060806 | 42 | 167 | 1.0 | 2.0 | 0.00 | 0.02 | 0.00 | 80 | 1010.2 |
| 20260508060306 | 44 | 99 | 1.0 | 2.0 | 0.00 | 0.02 | 0.00 | 79 | 1010.0 |
| 20260508055805 | 42 | 293 | 1.0 | 2.0 | 0.00 | 0.02 | 0.00 | 51 | 1010.3 |
| 20260508055306 | 44 | 204 | 1.0 | 3.0 | 0.00 | 0.02 | 0.00 | 77 | 1010.2 |
| 20260508054805 | 44 | 20 | 1.0 | 3.0 | 0.00 | 0.02 | 0.00 | 75 | 1010.2 |
| 20260508054305 | 49 | 68 | 2.0 | 3.0 | 0.00 | 0.02 | 0.00 | 73 | 1010.1 |
| 20260508053805 | 45 | 77 | 3.0 | 5.0 | 0.00 | 0.02 | 0.00 | 61 | 1010.1 |
| 20260508053305 | 44 | 21 | 1.0 | 5.0 | 0.00 | 0.02 | 0.00 | 73 | 1010.0 |
| 20260508052806 | 45 | 109 | 2.0 | 5.0 | 0.00 | 0.02 | 0.00 | 72 | 1010.2 |
| 20260508052307 | 45 | 46 | 3.0 | 6.0 | 0.00 | 0.02 | 0.00 | 72 | 1015.3 |
| 20260508051806 | 45 | 39 | 1.0 | 6.0 | 0.00 | 0.02 | 0.00 | 71 | 1010.1 |
| 20260508051306 | 45 | 50 | 3.0 | 6.0 | 0.00 | 0.02 | 0.00 | 67 | 1010.2 |
| 20260508050805 | 45 | 209 | 3.0 | 7.0 | 0.00 | 0.02 | 0.00 | 64 | 1010.0 |
| 20260508050305 | 47 | 329 | 2.0 | 7.0 | 0.00 | 0.02 | 0.00 | 67 | 1010.4 |
| 20260508045805 | 47 | 278 | 4.0 | 7.0 | 0.00 | 0.02 | 0.01 | 64 | 1010.1 |
| 20260508045307 | 46 | 229 | 2.0 | 16.0 | 0.00 | 0.02 | 0.01 | 62 | 1010.1 |
| 20260508044805 | 49 | 180 | 5.0 | 8.0 | 0.00 | 0.02 | 0.01 | 58 | 1010.1 |
| 20260508044306 | 49 | 303 | 3.0 | 8.0 | 0.00 | 0.02 | 0.01 | 51 | 1010.2 |
| 20260508043806 | 49 | 0 | 2.0 | 8.0 | 0.00 | 0.02 | 0.01 | 56 | 1010.1 |
| 20260508043305 | 48 | 236 | 2.0 | 7.0 | 0.00 | 0.02 | 0.01 | 54 | 1010.2 |
| 20260508042805 | 48 | 197 | 3.0 | 9.0 | 0.00 | 0.02 | 0.01 | 52 | 1010.0 |
| 20260508042307 | 50 | 132 | 4.0 | 8.0 | 0.00 | 0.02 | 0.01 | 50 | 1010.0 |
| 20260508041805 | 50 | 281 | 2.0 | 8.0 | 0.00 | 0.02 | 0.01 | 49 | 1010.2 |
| 20260508041305 | 49 | 300 | 3.0 | 8.0 | 0.00 | 0.02 | 0.01 | 49 | 1010.1 |
| 20260508040805 | 49 | 282 | 5.0 | 9.0 | 0.00 | 0.02 | 0.01 | 49 | 1019.0 |
| 20260508035805 | 48 | 214 | 6.0 | 9.0 | 0.00 | 0.02 | 0.01 | 44 | 1013.7 |
| 20260508035306 | 50 | 313 | 5.0 | 7.0 | 0.00 | 0.02 | 0.01 | 50 | 1010.0 |
| 20260508034805 | 50 | 94 | 2.0 | 6.0 | 0.00 | 0.02 | 0.01 | 50 | 1010.0 |
| 20260508034305 | 49 | 349 | 1.0 | 5.0 | 0.00 | 0.02 | 0.01 | 51 | 1009.9 |
| 20260508033805 | 49 | 297 | 2.0 | 10.0 | 0.00 | 0.02 | 0.01 | 50 | 1009.8 |
| 20260508032805 | 48 | 143 | 2.0 | 8.0 | 0.00 | 0.02 | 0.01 | 50 | 1009.7 |
| 20260508032306 | 50 | 42 | 2.0 | 5.0 | 0.00 | 0.02 | 0.01 | 37 | 1017.3 |
| 20260508031805 | 50 | 125 | 1.0 | 3.0 | 0.00 | 0.02 | 0.01 | 50 | 1009.8 |
| 20260508031305 | 50 | 32 | 1.0 | 5.0 | 0.00 | 0.02 | 0.01 | 36 | 1017.7 |
| 20260508030805 | 50 | 236 | 1.0 | 5.0 | 0.00 | 0.02 | 0.01 | 49 | 1009.8 |
| 20260508030305 | 49 | 233 | 2.0 | 5.0 | 0.00 | 0.02 | 0.01 | 48 | 1009.6 |
| 20260508025804 | 49 | 239 | 1.0 | 3.0 | 0.00 | 0.02 | 0.01 | 47 | 1009.6 |
| 20260508025306 | 51 | 320 | 2.0 | 5.0 | 0.00 | 0.02 | 0.01 | 47 | 1009.6 |
| 20260508024805 | 51 | 210 | 3.0 | 6.0 | 0.00 | 0.02 | 0.01 | 47 | 1009.6 |
| 20260508024305 | 51 | 255 | 1.0 | 7.0 | 0.00 | 0.02 | 0.01 | 47 | 1009.4 |
| 20260508023806 | 50 | 292 | 2.0 | 6.0 | 0.00 | 0.02 | 0.01 | 47 | 1009.4 |
| 20260508023305 | 50 | 258 | 2.0 | 6.0 | 0.00 | 0.02 | 0.01 | 47 | 1009.3 |
| 20260508022805 | 50 | 265 | 3.0 | 6.0 | 0.00 | 0.02 | 0.01 | 46 | 1009.2 |
| 20260508022307 | 52 | 307 | 3.0 | 5.0 | 0.00 | 0.02 | 0.01 | 36 | 1016.9 |
| 20260508021806 | 51 | 132 | 2.0 | 3.0 | 0.00 | 0.02 | 0.01 | 47 | 1009.2 |
| 20260508021305 | 51 | 291 | 2.0 | 5.0 | 0.00 | 0.02 | 0.01 | 35 | 1017.7 |
| 20260508020805 | 51 | 230 | 2.0 | 5.0 | 0.00 | 0.02 | 0.01 | 46 | 1009.1 |
| 20260508020304 | 51 | 220 | 3.0 | 5.0 | 0.00 | 0.02 | 0.01 | 40 | 1013.7 |
| 20260508015805 | 51 | 287 | 2.0 | 5.0 | 0.00 | 0.02 | 0.01 | 44 | 1009.0 |
| 20260508015306 | 53 | 254 | 2.0 | 5.0 | 0.00 | 0.02 | 0.01 | 44 | 1009.1 |
| 20260508014805 | 53 | 17 | 1.0 | 6.0 | 0.00 | 0.02 | 0.01 | 43 | 1008.9 |
| 20260508013805 | 52 | 305 | 3.0 | 6.0 | 0.00 | 0.02 | 0.01 | 44 | 1009.1 |
| 20260508013305 | 52 | 347 | 2.0 | 6.0 | 0.00 | 0.02 | 0.01 | 43 | 1008.9 |
| 20260508012805 | 54 | 280 | 3.0 | 9.0 | 0.00 | 0.02 | 0.01 | 42 | 1008.9 |
| 20260508012307 | 53 | 166 | 2.0 | 12.0 | 0.00 | 0.02 | 0.01 | 42 | 1008.8 |
| 20260508011804 | 53 | 156 | 3.0 | 12.0 | 0.00 | 0.02 | 0.01 | 36 | 1013.0 |
| 20260508011305 | 55 | 243 | 3.0 | 8.0 | 0.00 | 0.02 | 0.01 | 42 | 1008.8 |
| 20260508010805 | 52 | 182 | 2.0 | 5.0 | 0.00 | 0.02 | 0.01 | 42 | 1008.6 |
| 20260508010306 | 54 | 29 | 3.0 | 8.0 | 0.00 | 0.02 | 0.01 | 42 | 1008.7 |
| 20260508005805 | 62 | 248 | 2.0 | 5.0 | 0.00 | 0.02 | 0.01 | 42 | 1008.7 |
| 20260508005306 | 62 | 213 | 2.0 | 9.0 | 0.00 | 0.02 | 0.01 | 42 | 1008.7 |
| 20260508004805 | 63 | 177 | 1.0 | 9.0 | 0.00 | 0.02 | 0.01 | 42 | 1008.7 |
| 20260508004305 | 62 | 239 | 2.0 | 9.0 | 0.00 | 0.02 | 0.01 | 41 | 1008.8 |
| 20260508003805 | 62 | 198 | 3.0 | 14.0 | 0.00 | 0.02 | 0.01 | 41 | 1008.7 |
| 20260508003305 | 62 | 179 | 5.0 | 14.0 | 0.00 | 0.02 | 0.01 | 39 | 1008.8 |
| 20260508002805 | 62 | 257 | 2.0 | 8.0 | 0.00 | 0.02 | 0.01 | 40 | 1008.7 |
| 20260508002307 | 62 | 291 | 2.0 | 10.0 | 0.00 | 0.02 | 0.01 | 39 | 1008.4 |
| 20260508001305 | 62 | 162 | 11.0 | 23.0 | 0.00 | 0.03 | 0.01 | 37 | 1008.4 |
| 20260508000805 | 63 | 269 | 3.0 | 8.0 | 0.00 | 0.03 | 0.01 | 39 | 1012.8 |
| 20260508000305 | 54 | 189 | 3.0 | 10.0 | 0.00 | 0.03 | 0.01 | 39 | 1008.4 |
| 20260507235805 | 63 | 296 | 5.0 | 18.0 | 0.00 | 0.03 | 0.01 | 38 | 1008.6 |
| 20260507235307 | 62 | 109 | 5.0 | 21.0 | 0.00 | 0.03 | 0.01 | 37 | 1008.5 |
| 20260507234805 | 63 | 228 | 9.0 | 21.0 | 0.00 | 0.04 | 0.01 | 35 | 1012.0 |
| 20260507234305 | 62 | 251 | 6.0 | 21.0 | 0.00 | 0.04 | 0.01 | 36 | 1008.4 |
| 20260507233805 | 63 | 173 | 9.0 | 21.0 | 0.00 | 0.04 | 0.01 | 36 | 1012.3 |
| 20260507233305 | 63 | 217 | 7.0 | 14.0 | 0.00 | 0.05 | 0.01 | 34 | 1008.3 |
| 20260507232805 | 63 | 190 | 5.0 | 23.0 | 0.00 | 0.05 | 0.01 | 33 | 1008.4 |
| 20260507232306 | 62 | 175 | 4.0 | 14.0 | 0.00 | 0.06 | 0.01 | 36 | 1008.4 |
| 20260507231804 | 63 | 114 | 5.0 | 13.0 | 0.00 | 0.06 | 0.01 | 31 | 1008.5 |
| 20260507231305 | 63 | 223 | 4.0 | 16.0 | 0.00 | 0.06 | 0.01 | 38 | 1008.5 |
| 20260507230805 | 54 | 73 | 3.0 | 7.0 | 0.00 | 0.07 | 0.01 | 34 | 1008.6 |
| 20260507225805 | 63 | 199 | 7.0 | 15.0 | 0.00 | 0.08 | 0.01 | 38 | 1008.7 |
| 20260507225306 | 63 | 178 | 4.0 | 16.0 | 0.00 | 0.09 | 0.01 | 34 | 1017.2 |
| 20260507224304 | 62 | 284 | 6.0 | 16.0 | 0.00 | 0.10 | 0.01 | 36 | 1008.6 |
| 20260507223804 | 63 | 147 | 8.0 | 16.0 | 0.00 | 0.10 | 0.01 | 36 | 1008.7 |
| 20260507223305 | 63 | 174 | 4.0 | 14.0 | 0.00 | 0.11 | 0.01 | 36 | 1008.7 |
| 20260507222804 | 63 | 297 | 7.0 | 14.0 | 0.00 | 0.11 | 0.01 | 27 | 1017.8 |
| 20260507222306 | 63 | 95 | 4.0 | 13.0 | 0.00 | 0.12 | 0.01 | 39 | 1008.6 |
| 20260507221805 | 63 | 319 | 6.0 | 13.0 | 0.00 | 0.12 | 0.01 | 40 | 1008.7 |
| 20260507220305 | 63 | 150 | 5.0 | 21.0 | 0.00 | 0.14 | 0.01 | 27 | 1017.8 |
| 20260507215805 | 63 | 212 | 7.0 | 18.0 | 0.00 | 0.15 | 0.01 | 39 | 1008.9 |
| 20260507215306 | 63 | 134 | 4.0 | 18.0 | 0.00 | 0.15 | 0.01 | 31 | 1014.8 |
| 20260507214305 | 53 | 95 | 5.0 | 12.0 | 0.00 | 0.15 | 0.01 | 45 | 1009.2 |
| 20260507213305 | 62 | 108 | 1.0 | 10.0 | 0.00 | 0.15 | 0.01 | 44 | 1009.3 |
| 20260507212805 | 62 | 66 | 5.0 | 12.0 | 0.00 | 0.16 | 0.01 | 44 | 1009.3 |
| 20260507212307 | 62 | 63 | 3.0 | 9.0 | 0.00 | 0.16 | 0.01 | 44 | 1009.4 |
| 20260507211805 | 63 | 82 | 6.0 | 10.0 | 0.00 | 0.16 | 0.01 | 42 | 1009.7 |
| 20260507211305 | 53 | 175 | 2.0 | 16.0 | 0.00 | 0.16 | 0.01 | 39 | 1009.5 |
| 20260507210804 | 63 | 152 | 6.0 | 16.0 | 0.00 | 0.16 | 0.01 | 32 | 1013.9 |
| 20260507210305 | 63 | 174 | 4.0 | 13.0 | 0.00 | 0.16 | 0.01 | 39 | 1009.6 |
| 20260507205306 | 61 | 165 | 6.0 | 16.0 | 0.00 | 0.16 | 0.01 | 39 | 1009.6 |
| 20260507204804 | 61 | 171 | 6.0 | 12.0 | 0.00 | 0.16 | 0.01 | 39 | 1009.6 |
| 20260507204306 | 61 | 231 | 2.0 | 10.0 | 0.00 | 0.17 | 0.01 | 40 | 1009.6 |
| 20260507203805 | 61 | 155 | 2.0 | 10.0 | 0.00 | 0.17 | 0.01 | 39 | 1009.8 |
| 20260507202306 | 53 | 216 | 3.0 | 13.0 | 0.00 | 0.17 | 0.01 | 40 | 1010.0 |
| 20260507201804 | 61 | 23 | 6.0 | 16.0 | 0.00 | 0.18 | 0.01 | 40 | 1010.2 |
| 20260507201304 | 61 | 156 | 7.0 | 21.0 | 0.00 | 0.18 | 0.01 | 40 | 1010.2 |
| 20260507200805 | 61 | 125 | 7.0 | 13.0 | 0.00 | 0.18 | 0.01 | 39 | 1010.1 |
| 20260507200304 | 61 | 180 | 5.0 | 12.0 | 0.00 | 0.18 | 0.01 | 40 | 1009.9 |
| 20260507195306 | 57 | 187 | 8.0 | 21.0 | 0.00 | 0.18 | 0.01 | 41 | 1020.3 |
| 20260507194304 | 57 | 164 | 7.0 | 29.0 | 0.01 | 0.19 | 0.01 | 41 | 1010.2 |
| 20260507193804 | 57 | 159 | 10.0 | 22.0 | 0.01 | 0.19 | 0.01 | 41 | 1010.2 |
| 20260507193304 | 57 | 190 | 6.0 | 17.0 | 0.01 | 0.19 | 0.01 | 41 | 1010.3 |
| 20260507191804 | 57 | 196 | 7.0 | 22.0 | 0.01 | 0.20 | 0.01 | 43 | 1010.6 |
| 20260507191305 | 57 | 180 | 10.0 | 22.0 | 0.01 | 0.20 | 0.01 | 47 | 1010.6 |
| 20260507190805 | 57 | 186 | 9.0 | 23.0 | 0.01 | 0.20 | 0.01 | 43 | 1014.3 |
| 20260507190304 | 52 | 171 | 5.0 | 21.0 | 0.01 | 0.20 | 0.01 | 43 | 1010.6 |
| 20260507185805 | 52 | 164 | 10.0 | 20.0 | 0.01 | 0.20 | 0.01 | 41 | 1010.7 |
| 20260507185306 | 51 | 200 | 5.0 | 12.0 | 0.01 | 0.20 | 0.01 | 44 | 1010.5 |
| 20260507184806 | 51 | 246 | 6.0 | 12.0 | 0.01 | 0.21 | 0.01 | 42 | 1010.8 |
| 20260507183306 | 51 | 165 | 3.0 | 15.0 | 0.00 | 0.20 | 0.01 | 46 | 1010.8 |
| 20260507182806 | 50 | 198 | 7.0 | 20.0 | 0.00 | 0.20 | 0.01 | 46 | 1010.9 |
| 20260507181806 | 50 | 159 | 11.0 | 23.0 | 0.00 | 0.20 | 0.01 | 46 | 1010.9 |
| 20260507181306 | 50 | 168 | 10.0 | 17.0 | 0.00 | 0.20 | 0.01 | 45 | 1011.2 |
| 20260507180806 | 48 | 199 | 9.0 | 17.0 | 0.00 | 0.20 | 0.01 | 45 | 1015.8 |
| 20260507180306 | 50 | 159 | 5.0 | 13.0 | 0.00 | 0.24 | 0.01 | 40 | 1011.1 |
| 20260507175806 | 48 | 170 | 5.0 | 13.0 | 0.00 | 0.24 | 0.01 | 45 | 1011.2 |
| 20260507175307 | 48 | 171 | 3.0 | 12.0 | 0.00 | 0.24 | 0.01 | 46 | 1011.2 |
| 20260507174806 | 48 | 157 | 5.0 | 12.0 | 0.00 | 0.24 | 0.01 | 42 | 1021.3 |
| 20260507174306 | 48 | 173 | 4.0 | 12.0 | 0.00 | 0.24 | 0.01 | 49 | 1011.3 |
| 20260507173805 | 48 | 160 | 5.0 | 9.0 | 0.00 | 0.24 | 0.01 | 48 | 1011.4 |
| 20260507173306 | 48 | 204 | 4.0 | 12.0 | 0.00 | 0.24 | 0.01 | 39 | 1011.5 |
| 20260507172806 | 48 | 158 | 5.0 | 10.0 | 0.00 | 0.25 | 0.01 | 49 | 1011.4 |
| 20260507172307 | 48 | 179 | 3.0 | 9.0 | 0.00 | 0.25 | 0.01 | 49 | 1020.9 |
| 20260507171805 | 48 | 163 | 3.0 | 9.0 | 0.00 | 0.25 | 0.01 | 45 | 1011.4 |
| 20260507171305 | 48 | 185 | 3.0 | 9.0 | 0.00 | 0.25 | 0.01 | 45 | 1021.1 |
| 20260507170805 | 48 | 136 | 6.0 | 9.0 | 0.00 | 0.25 | 0.01 | 45 | 1011.3 |
| 20260507165805 | 45 | 193 | 3.0 | 7.0 | 0.00 | 0.28 | 0.01 | 46 | 1011.6 |
| 20260507165306 | 44 | 211 | 3.0 | 7.0 | 0.00 | 0.28 | 0.01 | 49 | 1011.6 |
| 20260507164805 | 44 | 199 | 3.0 | 9.0 | 0.01 | 0.28 | 0.01 | 48 | 1011.8 |
| 20260507164306 | 45 | 197 | 2.0 | 9.0 | 0.01 | 0.28 | 0.01 | 47 | 1011.8 |
| 20260507163806 | 44 | 217 | 1.0 | 7.0 | 0.01 | 0.28 | 0.01 | 46 | 1011.9 |
| 20260507163305 | 43 | 51 | 4.0 | 7.0 | 0.01 | 0.28 | 0.01 | 47 | 1019.0 |
| 20260507162805 | 43 | 74 | 3.0 | 5.0 | 0.01 | 0.28 | 0.01 | 46 | 1011.9 |
| 20260507162307 | 43 | 195 | 2.0 | 5.0 | 0.01 | 0.28 | 0.01 | 50 | 1017.6 |
| 20260507161805 | 43 | 51 | 3.0 | 5.0 | 0.01 | 0.28 | 0.01 | 47 | 1011.8 |
| 20260507161305 | 42 | 258 | 2.0 | 5.0 | 0.01 | 0.28 | 0.01 | 48 | 1012.1 |
| 20260507160805 | 43 | 61 | 1.0 | 5.0 | 0.01 | 0.28 | 0.01 | 48 | 1012.2 |
| 20260507155805 | 40 | 231 | 2.0 | 5.0 | 0.01 | 0.28 | 0.01 | 51 | 1012.4 |
| 20260507155307 | 38 | 185 | 2.0 | 7.0 | 0.00 | 0.27 | 0.00 | 53 | 1012.7 |
| 20260507154304 | 38 | 108 | 2.0 | 3.0 | 0.00 | 0.27 | 0.00 | 55 | 1012.8 |
| 20260507153806 | 36 | 86 | 1.0 | 8.0 | 0.00 | 0.27 | 0.00 | 53 | 1012.9 |